TimeEDT,TemperatureF,Dew PointF,Humidity,Sea Level PressureIn,VisibilityMPH,Wind Direction,Wind SpeedMPH,Gust SpeedMPH,PrecipitationIn,Events,Conditions,WindDirDegrees,DateUTC
12:53 AM,75.0,73.0,94,30.00,10.0,Variable,3.5,23.0,0.01,,Clear,0,2012-10-06 04:53:00
1:53 AM,75.0,73.0,94,29.98,10.0,SE,4.6,-,N/A,,Clear,130,2012-10-06 05:53:00
2:53 AM,75.0,73.0,94,29.97,10.0,Calm,Calm,-,N/A,,Clear,0,2012-10-06 06:53:00
3:45 AM,75.2,73.4,94,29.95,10.0,East,3.5,-,N/A,,Partly Cloudy,80,2012-10-06 07:45:00
3:53 AM,77.0,73.9,90,29.95,10.0,Calm,Calm,-,N/A,,Partly Cloudy,0,2012-10-06 07:53:00
4:53 AM,75.9,73.9,94,29.95,10.0,NNE,3.5,-,N/A,,Partly Cloudy,20,2012-10-06 08:53:00
5:53 AM,75.9,73.9,94,29.95,10.0,NE,6.9,-,N/A,,Scattered Clouds,50,2012-10-06 09:53:00
6:53 AM,75.9,75.0,97,29.96,10.0,Calm,Calm,-,N/A,,Clear,0,2012-10-06 10:53:00
7:43 AM,75.2,73.4,94,29.96,10.0,Calm,Calm,-,N/A,,Scattered Clouds,0,2012-10-06 11:43:00
7:53 AM,77.0,75.0,94,29.97,10.0,Calm,Calm,-,N/A,,Mostly Cloudy,0,2012-10-06 11:53:00
7:57 AM,77.0,75.2,94,29.97,10.0,ENE,3.5,-,N/A,,Scattered Clouds,70,2012-10-06 11:57:00
8:53 AM,78.1,75.9,93,29.97,10.0,ESE,5.8,-,N/A,,Scattered Clouds,110,2012-10-06 12:53:00
9:00 AM,78.8,75.2,89,29.98,10.0,East,4.6,-,N/A,,Mostly Cloudy,100,2012-10-06 13:00:00
9:53 AM,79.0,75.9,90,29.99,10.0,Calm,Calm,-,N/A,,Mostly Cloudy,0,2012-10-06 13:53:00
10:35 AM,80.6,75.2,84,29.98,10.0,Calm,Calm,-,N/A,,Mostly Cloudy,0,2012-10-06 14:35:00
10:49 AM,82.4,75.2,79,29.98,10.0,Calm,Calm,-,N/A,,Scattered Clouds,0,2012-10-06 14:49:00
10:53 AM,82.0,77.0,85,29.98,10.0,NE,4.6,-,N/A,,Scattered Clouds,50,2012-10-06 14:53:00
11:53 AM,82.0,77.0,85,29.98,10.0,NE,5.8,-,N/A,,Clear,40,2012-10-06 15:53:00
12:53 PM,82.9,75.9,79,29.96,10.0,NNE,6.9,-,N/A,,Scattered Clouds,30,2012-10-06 16:53:00
1:29 PM,82.4,75.2,79,29.95,10.0,East,3.5,-,N/A,Thunderstorm,Thunderstorm,80,2012-10-06 17:29:00
1:53 PM,81.0,75.9,85,29.94,8.0,Calm,Calm,-,0.00,Rain-Thunderstorm,Light Thunderstorms and Rain,0,2012-10-06 17:53:00
2:16 PM,78.8,71.6,78,29.93,-9999.0,WSW,9.2,-,0.00,Thunderstorm,Thunderstorm,250,2012-10-06 18:16:00
2:53 PM,77.0,71.1,82,29.91,8.0,WSW,4.6,-,0.01,Rain,Light Rain,240,2012-10-06 18:53:00
3:53 PM,84.0,73.0,69,29.89,10.0,WNW,3.5,-,0.02,,Partly Cloudy,290,2012-10-06 19:53:00
4:24 PM,84.2,73.4,70,29.88,10.0,NW,3.5,-,0.01,Thunderstorm,Clear,310,2012-10-06 20:24:00
4:31 PM,84.2,73.4,70,29.88,10.0,NNW,10.4,-,0.01,,Clear,330,2012-10-06 20:31:00
4:53 PM,86.0,73.0,65,29.88,10.0,NW,9.2,-,0.01,,Clear,310,2012-10-06 20:53:00
5:53 PM,82.9,72.0,69,29.88,10.0,NW,6.9,-,0.01,,Clear,320,2012-10-06 21:53:00
6:53 PM,82.4,71.6,70,29.89,10.0,North,5.8,-,N/A,,Clear,350,2012-10-06 22:53:00
7:53 PM,81.0,73.0,77,29.93,10.0,North,8.1,-,0.01,,Clear,360,2012-10-06 23:53:00
8:53 PM,80.1,73.9,81,29.94,10.0,North,6.9,-,N/A,,Clear,360,2012-10-07 00:53:00
9:53 PM,78.1,72.0,81,29.97,10.0,East,12.7,20.7,0.01,,Mostly Cloudy,100,2012-10-07 01:53:00
10:53 PM,75.0,70.0,84,29.95,10.0,SE,5.8,-,N/A,,Clear,140,2012-10-07 02:53:00
11:53 PM,73.4,69.8,88,29.95,10.0,Calm,Calm,-,N/A,,Clear,0,2012-10-07 03:53:00